Weather in Bronckhorst

Netherlands     52°04′32″N   6°10′49″E
temp.,
°C
wind,
m/s
gust,
m/s
humid.,
%
clouds,
%
prec.,
mm/h
press.,
hPa
HPBL,
m
25 may, wed
wed2523:00+10sw3593100 0.1 101188
02:00+8sw35943 0.1 101288
05:00+8sw37960 0.0 1012141
08:00+10sw598828 0.0 1014343
11:00+16sw796488 0.0 10141230
14:00+18wsw8114749 0.1 10142518
17:00+17sw7115883 0.1 10141475
20:00+15wsw71267100 0.3 10151193
26 may, thu
thu2623:00+14wsw71370100 0.0 10161039
02:00+14wsw71282100 0.1 1016847
05:00+12wsw6119299 0.1 1017425
08:00+14wsw59851 0.1 1019551
11:00+18wsw696597 0.1 10201490
14:00+19wsw8105669 0.2 10201629
17:00+20wsw8115523 0.0 10191440
20:00+17w7147498 0.0 10191102
27 may, fri
fri2723:00+15wsw81580100 0.0 1019773
02:00+14wsw71288100 0.2 1018854
05:00+13wnw6118999 0.8 1019796
08:00+12wnw61282100 0.8 10211236
11:00+15wnw710495 0.0 10211805
14:00+17w9114619 0.0 10222161
17:00+16wnw9115042 0.0 10222040
20:00+13wnw713665 0.1 10221496
28 may, sat
sat2823:00+11w6126991 0.0 1023633
02:00+10w511815 0.0 1022427
05:00+9w5108862 0.0 1022319
08:00+12nw59746 0.1 10231041
11:00+15nw68495 0.0 10241680
14:00+16nw78445 0.0 10241916
17:00+16nnw78485 0.0 10241879
20:00+13nnw68621 0.0 1025994
29 may, sun
sun2923:00+7nw368552 0.0 1025107
02:00+6wnw34912 0.0 102557
05:00+5wnw33945 0.0 102448
08:00+10nw3680100 0.0 1024338
11:00+12nnw4667100 0.0 10241331
14:00+13nw6759100 0.1 10231525
17:00+14nw796084 0.0 10221537
20:00+11nnw6862100 0.1 10221262